Date,TemperatureHighF,TemperatureAvgF,TemperatureLowF,DewpointHighF,DewpointAvgF,DewpointLowF,HumidityHigh,HumidityAvg,HumidityLow,PressureMaxIn,PressureMinIn,WindSpeedMaxMPH,WindSpeedAvgMPH,GustSpeedMaxMPH,PrecipitationSumIn
2013-1-1,38,36,32,36,33,26,100,90,74,30.11,30.01,5,0,5,0.00
2013-1-2,36,30,26,26,21,17,84,70,48,30.22,30.07,4,0,4,0.00
2013-1-3,41,30,22,26,22,20,92,73,46,30.32,30.19,12,0,12,0.00
2013-1-4,40,34,30,25,23,21,75,64,51,30.37,30.28,16,2,16,0.00
2013-1-5,44,35,22,30,25,19,88,69,51,30.41,30.20,9,0,9,0.00
2013-1-6,47,40,34,33,29,22,74,64,55,30.32,30.02,18,2,18,0.00
2013-1-7,41,34,25,27,24,22,88,69,53,30.43,30.23,6,1,6,0.00
2013-1-8,54,34,22,33,26,19,91,75,43,30.39,30.25,8,0,8,0.00
2013-1-9,54,40,31,50,38,27,100,91,83,30.50,30.26,4,0,4,0.00
2013-1-10,47,41,35,42,39,35,100,93,82,30.51,30.17,8,1,8,0.00
2013-1-11,62,51,42,59,50,40,100,96,91,30.17,29.95,6,0,6,0.00
2013-1-12,68,54,43,64,53,43,100,97,82,30.08,29.99,5,0,5,0.00
2013-1-13,62,57,50,61,56,49,100,98,83,59.49,29.88,21,1,21,0.00
2013-1-14,51,39,33,48,34,27,93,81,67,30.37,30.03,9,2,9,0.00
2013-1-15,38,35,33,33,30,27,95,85,71,30.28,30.03,7,1,7,0.00
2013-1-16,37,36,34,36,34,32,96,93,91,30.07,29.86,12,1,12,0.00
2013-1-17,37,35,30,35,31,28,97,86,76,30.31,30.06,5,0,5,0.00
2013-1-18,40,34,27,30,24,17,96,68,44,30.49,30.31,10,0,10,0.00
2013-1-19,56,42,26,32,27,22,88,58,33,30.32,29.98,15,2,15,0.00
2013-1-20,46,42,32,31,19,8,63,41,24,30.16,29.98,12,2,12,0.00
2013-1-21,37,29,20,20,14,1,79,55,36,30.20,30.01,20,3,20,0.00
2013-1-22,24,19,13,4,0,-5,59,44,30,30.36,30.19,14,3,14,0.00
2013-1-23,28,23,16,9,4,-2,50,43,33,30.34,30.08,9,1,9,0.00
2013-1-24,28,23,19,15,8,2,73,52,35,30.54,30.08,15,2,15,0.00
2013-1-25,28,24,21,26,14,4,90,69,47,30.48,30.04,7,1,7,0.00
2013-1-26,37,30,22,26,22,20,95,74,53,30.43,30.16,11,1,11,0.00
2013-1-27,41,31,20,33,23,17,91,76,52,30.44,30.25,5,0,5,0.00
2013-1-28,61,48,35,54,46,33,99,94,65,30.25,30.10,16,1,16,0.00
2013-1-29,72,60,47,57,53,47,100,81,58,30.11,29.75,12,1,12,0.00
2013-1-30,69,58,41,62,54,36,100,85,66,29.75,29.34,32,2,32,0.00
2013-1-31,41,33,29,37,24,16,95,70,53,29.94,29.51,26,2,26,0.00
2013-2-1,30,18,12,29,8,1,97,63,45,30.38,29.89,13,2,13,0.00
2013-2-2,34,24,12,30,19,6,95,80,62,30.34,29.98,8,0,8,0.00
2013-2-3,32,30,27,28,23,18,84,76,62,30.12,29.89,15,2,15,0.00
2013-2-4,44,32,19,37,24,16,99,76,48,30.12,29.82,8,0,8,0.00
2013-2-5,47,42,36,40,38,34,100,88,69,30.00,29.84,12,1,12,0.00
2013-2-6,47,40,33,34,31,28,83,69,50,30.25,30.00,7,1,7,0.00
2013-2-7,62,44,33,40,33,28,86,68,35,30.23,29.88,5,1,5,0.00
2013-2-8,46,41,36,45,36,27,98,82,70,30.23,29.81,19,3,19,0.00
2013-2-9,43,35,28,26,21,17,79,59,36,30.36,30.25,7,1,7,0.00
2013-2-10,58,45,28,44,34,22,89,67,33,30.25,29.88,18,1,18,0.00
2013-2-11,62,52,43,52,38,25,92,63,30,30.05,29.84,25,3,25,0.00
2013-2-12,53,41,30,29,27,23,88,59,32,30.13,29.89,11,1,11,0.00
2013-2-13,44,36,32,34,31,27,93,83,60,29.92,29.68,9,1,9,0.00
2013-2-14,54,43,30,38,34,29,98,72,50,29.95,29.88,13,2,13,0.00
2013-2-15,41,37,33,38,34,28,94,86,76,30.10,29.94,8,1,8,0.00
2013-2-16,36,30,24,29,20,9,83,66,42,30.09,29.96,13,2,13,0.00
2013-2-17,32,24,19,13,9,4,74,53,32,30.26,30.07,13,2,13,0.00
2013-2-18,60,38,17,36,23,11,79,57,40,30.27,29.82,13,1,13,0.00
2013-2-19,50,41,30,38,25,16,76,53,42,30.08,29.78,31,5,31,0.00
2013-2-20,36,30,24,17,14,11,62,52,39,30.29,30.07,18,4,18,0.00
2013-2-21,37,28,17,20,16,11,81,61,47,30.35,30.15,12,2,12,0.00
2013-2-22,63,43,31,51,37,18,94,80,52,30.16,29.89,13,2,13,0.00
2013-2-23,52,45,35,41,37,29,91,75,49,29.97,29.85,11,1,11,0.00
2013-2-24,47,36,26,30,26,21,93,68,42,30.15,29.91,12,2,12,0.00
2013-2-25,49,35,24,25,22,20,87,62,37,30.17,29.93,11,2,11,0.00
2013-2-26,55,45,37,47,38,23,96,76,56,29.95,29.45,15,3,15,0.00
2013-2-27,45,41,36,40,36,32,88,81,73,29.80,29.58,15,2,15,0.00
2013-2-28,36,36,34,35,32,28,96,85,76,29.91,29.73,18,2,18,0.00
2013-3-1,41,37,33,35,31,25,96,80,63,29.98,29.88,10,2,10,0.00
2013-3-2,35,32,29,26,21,19,78,66,55,30.04,29.96,9,2,9,0.00
2013-3-3,34,30,28,25,21,17,79,67,51,30.08,30.01,12,2,12,0.00
2013-3-4,46,34,20,30,20,15,88,60,30,30.19,30.02,7,1,7,0.00
2013-3-5,47,40,34,46,36,29,100,85,74,30.05,29.48,19,2,19,0.00
2013-3-6,37,33,32,33,29,27,92,84,82,29.78,29.65,14,2,14,0.00
2013-3-7,42,36,31,30,29,27,85,75,61,30.35,29.66,10,2,10,0.00
2013-3-8,50,36,25,29,26,23,95,70,36,30.44,30.32,8,1,8,0.00
2013-3-9,63,42,25,35,28,22,90,62,28,30.36,30.08,7,1,7,0.00
2013-3-10,78,58,42,41,36,32,79,49,20,30.09,29.89,11,1,11,0.00
2013-3-11,65,59,44,54,41,31,92,56,33,29.91,29.68,15,2,15,0.00
2013-3-12,44,42,35,38,31,28,82,67,53,30.02,29.85,13,2,13,0.00
2013-3-13,38,35,31,32,25,15,91,67,43,30.28,30.00,22,3,22,0.00
2013-3-14,47,35,26,24,18,11,79,53,24,30.35,30.18,15,2,15,0.00
2013-3-15,61,43,27,40,28,19,78,58,37,30.19,29.82,16,2,16,0.00
2013-3-16,72,54,42,52,44,35,96,70,45,29.99,29.62,21,3,21,0.00
2013-3-17,44,37,34,36,33,32,94,86,71,30.14,29.96,10,2,10,0.00
2013-3-18,56,46,36,52,43,34,98,92,82,30.00,29.64,14,2,14,0.00
2013-3-19,51,45,38,47,24,7,86,48,21,30.08,29.75,25,5,25,0.00
2013-3-20,52,39,27,23,17,9,64,43,27,30.08,29.82,26,3,26,0.00
2013-3-21,34,28,24,22,12,7,81,50,34,30.04,29.91,20,2,20,0.00
2013-3-22,48,33,18,20,15,11,77,51,26,30.07,29.97,9,1,9,0.00
2013-3-23,56,41,27,27,22,18,72,50,25,30.05,29.88,8,1,8,0.00
2013-3-24,42,40,37,40,32,21,96,75,47,29.86,29.38,12,3,12,0.00
2013-3-25,41,36,34,39,31,26,96,82,69,29.87,29.41,23,3,23,0.00
2013-3-26,43,37,34,34,32,30,91,81,62,30.19,29.86,16,3,16,0.00
2013-3-27,48,39,32,30,27,20,80,65,42,30.27,30.18,15,2,15,0.00
2013-3-28,54,40,27,30,25,20,86,60,29,30.32,30.24,12,2,12,0.00
2013-3-29,60,42,27,34,27,23,85,59,27,30.31,30.16,11,1,11,0.00
2013-3-30,66,49,32,39,33,29,88,57,27,30.24,29.96,9,1,9,0.00
2013-3-31,55,49,42,51,45,34,97,84,61,29.95,29.78,12,1,12,0.00
2013-4-1,51,46,34,46,36,22,100,69,40,30.07,29.80,13,2,13,0.00
2013-4-2,52,39,26,25,20,13,82,51,21,30.24,30.07,12,1,12,0.00
2013-4-3,53,38,25,24,18,10,80,49,18,30.37,30.23,10,1,10,0.00
2013-4-4,55,44,34,40,23,14,87,46,27,30.32,30.00,8,1,8,0.00
2013-4-5,67,49,36,41,34,25,98,63,25,30.10,29.95,11,1,11,0.00
2013-4-6,72,57,36,39,30,23,65,39,21,30.16,29.96,10,1,10,0.00
2013-4-7,76,63,53,49,40,31,73,45,33,29.99,29.93,15,2,15,0.00
2013-4-8,79,64,48,54,49,44,86,62,37,30.01,29.91,12,1,12,0.00
2013-4-9,87,69,52,60,52,48,85,60,32,30.08,29.93,20,1,20,0.00
2013-4-10,88,72,54,62,55,50,86,58,34,30.00,29.80,16,2,16,0.00
2013-4-11,86,70,56,62,55,49,88,61,34,29.82,29.52,24,2,24,0.00
2013-4-12,62,58,51,58,45,34,95,66,36,29.91,29.48,22,4,22,0.00
2013-4-13,66,53,41,38,35,30,79,53,27,30.01,29.91,18,3,18,0.00
2013-4-14,73,57,39,48,39,34,86,55,28,30.09,29.87,8,1,8,0.00
2013-4-15,79,66,58,56,52,44,77,60,42,30.03,29.92,10,2,10,0.00
2013-4-16,90,70,52,65,56,49,94,64,33,30.20,30.00,13,2,13,0.00
2013-4-17,83,68,61,64,61,58,100,83,49,30.23,30.00,10,1,10,0.00
2013-4-18,90,72,54,63,58,52,99,65,37,30.02,29.71,16,2,16,0.00
2013-4-19,74,59,46,63,46,31,90,64,48,30.01,29.55,23,4,23,0.00
2013-4-20,61,50,39,34,29,22,73,47,26,30.36,30.01,14,2,14,0.00
2013-4-21,64,50,35,31,28,25,79,47,24,30.50,30.32,8,1,8,0.00
2013-4-22,74,58,38,43,36,28,76,48,25,30.34,30.13,7,1,7,0.00
2013-4-23,81,62,41,49,42,33,77,52,27,30.17,29.93,9,1,9,0.00
2013-4-24,71,58,42,58,46,35,86,66,52,30.24,29.80,27,2,27,0.00
2013-4-25,67,52,40,40,36,27,88,58,25,30.33,30.22,14,1,14,0.00
2013-4-26,69,54,36,39,33,26,83,49,22,30.45,30.31,6,1,6,0.00
2013-4-27,73,58,44,52,43,38,86,60,33,30.34,30.10,8,1,8,0.00
2013-4-28,73,63,56,56,54,51,93,74,53,30.10,29.85,12,1,12,0.00
2013-4-29,70,62,54,58,55,51,93,78,61,29.99,29.90,6,0,6,0.00
2013-4-30,82,65,50,59,53,49,99,70,35,30.06,29.97,6,1,6,0.00
2013-5-1,85,69,52,60,54,49,96,62,33,30.19,30.06,9,1,9,0.00
2013-5-2,83,68,54,58,54,48,82,61,40,30.24,30.10,10,1,10,0.00
2013-5-3,81,68,53,53,46,35,86,49,24,30.13,30.02,13,2,13,0.00
2013-5-4,80,67,54,51,46,40,73,47,33,30.06,29.94,12,1,12,0.00
2013-5-5,64,59,55,57,47,32,93,66,33,30.03,29.88,10,1,10,0.00
2013-5-6,65,59,56,58,54,50,93,83,69,29.90,29.84,12,3,12,0.00
2013-5-7,71,59,51,60,56,51,100,88,64,29.94,29.88,6,0,6,0.00
2013-5-8,76,63,56,60,56,52,99,80,45,29.98,29.86,8,0,8,0.00
2013-5-9,85,68,53,64,58,52,100,73,42,30.04,29.95,6,1,6,0.00
2013-5-10,83,68,60,66,61,57,93,79,53,29.99,29.84,13,1,13,0.00
2013-5-11,68,63,54,62,56,49,95,81,65,29.92,29.80,11,2,11,0.00
2013-5-12,65,54,45,51,37,30,85,54,28,30.11,29.90,13,2,13,0.00
2013-5-13,67,54,41,41,35,29,83,53,27,30.16,30.07,13,1,13,0.00
2013-5-14,82,60,38,55,44,34,86,59,34,30.17,29.84,12,1,12,0.00
2013-5-15,91,76,61,63,56,50,83,53,27,29.94,29.83,15,2,15,0.00
2013-5-16,80,69,63,66,59,50,98,70,50,30.00,29.87,7,1,7,0.00
2013-5-17,84,70,59,67,63,58,100,79,55,30.07,29.99,6,1,6,0.00
2013-5-18,89,75,64,68,64,62,96,73,44,30.06,29.94,8,1,8,0.00
2013-5-19,89,75,65,72,67,63,95,77,51,30.02,29.91,7,1,7,0.00
2013-5-20,90,76,64,73,68,62,97,78,57,30.08,29.95,9,1,9,0.00
2013-5-21,94,78,66,74,69,64,100,75,46,30.02,29.86,11,1,11,0.00
2013-5-22,92,77,62,70,64,60,96,68,42,29.95,29.80,20,2,20,0.00
2013-5-23,83,72,61,70,62,55,96,73,48,30.00,29.83,12,2,12,0.00
2013-5-24,67,58,50,55,42,36,83,57,35,30.31,30.00,12,2,12,0.00
2013-5-25,71,58,42,47,41,34,85,57,32,30.41,30.24,9,1,9,0.00
2013-5-26,76,63,51,49,45,34,76,53,32,30.33,30.22,7,1,7,0.00
2013-5-27,86,70,57,64,55,47,77,62,42,30.25,30.01,10,1,10,0.00
2013-5-28,90,77,65,65,62,59,85,62,41,30.07,29.96,13,1,13,0.00
2013-5-29,92,78,62,67,63,57,86,62,38,30.14,30.03,12,1,12,0.00
2013-5-30,94,79,64,68,65,62,93,64,37,30.09,30.08,7,1,7,0.00
2013-5-31,95,81,64,68,65,61,89,62,38,59.74,29.98,12,1,12,0.00
2013-6-1,92,82,71,71,67,62,84,61,47,30.01,29.81,13,2,13,0.00
2013-6-2,79,74,69,69,66,64,91,76,62,29.94,29.83,8,1,8,0.00
2013-6-3,80,70,64,67,61,56,97,75,46,30.03,29.86,6,1,6,0.00
2013-6-4,79,68,56,56,52,48,91,60,37,30.13,30.03,9,2,9,0.00
2013-6-5,92,79,61,70,66,51,92,69,41,30.07,29.88,12,1,12,0.00
2013-6-6,84,74,68,73,68,66,94,81,62,29.92,29.75,8,1,8,0.00
2013-6-7,74,68,63,66,62,58,94,82,62,29.87,29.74,7,1,7,0.00
2013-6-8,84,71,60,64,60,56,92,70,44,30.05,29.87,6,1,6,0.00
2013-6-9,92,74,62,70,64,58,95,75,39,30.10,29.96,9,1,9,0.00
2013-6-10,72,69,68,68,68,65,98,94,80,29.99,29.86,3,0,3,0.00
2013-6-11,88,75,66,68,66,63,93,74,51,29.91,29.86,9,1,9,0.00
2013-6-12,95,87,69,77,73,65,89,64,49,29.89,29.73,9,1,9,0.00
2013-6-13,88,76,65,76,68,59,90,76,58,29.94,29.75,16,2,16,0.00
2013-6-14,83,73,60,62,58,56,92,63,42,29.96,29.84,11,1,11,0.00
2013-6-15,86,73,58,65,60,55,91,67,40,29.99,29.85,7,1,7,0.00
2013-6-16,85,74,66,72,67,62,92,78,58,29.92,29.83,7,1,7,0.00
2013-6-17,90,78,67,73,69,65,97,77,51,29.86,29.73,7,1,7,0.00
2013-6-18,83,72,67,69,66,64,95,83,57,29.95,29.71,8,1,8,0.00
2013-6-19,83,74,64,67,62,57,92,69,43,30.12,29.94,7,1,7,0.00
2013-6-20,88,74,60,67,61,57,93,68,39,30.20,30.11,5,1,5,0.00
2013-6-21,92,77,63,69,64,60,92,67,40,30.22,30.11,8,1,8,0.00
2013-6-22,94,82,68,74,69,66,93,68,45,30.21,30.06,8,1,8,0.00
2013-6-23,95,81,67,73,68,64,93,67,39,30.18,30.05,7,1,7,0.00
2013-6-24,95,81,68,72,69,65,92,69,43,30.17,30.02,8,1,8,0.00
2013-6-25,94,84,71,74,71,68,90,68,48,30.09,29.92,7,1,7,0.00
2013-6-26,90,80,71,74,71,67,92,76,56,29.97,29.81,17,1,17,0.00
2013-6-27,86,76,69,74,70,67,97,84,63,29.85,29.69,8,1,8,0.00
2013-6-28,90,81,68,73,68,59,96,68,41,29.70,29.54,14,2,14,0.00
2013-6-29,85,73,63,69,65,60,96,77,51,29.68,29.57,8,1,8,0.00
2013-6-30,86,74,65,71,67,64,99,82,58,29.80,29.65,10,1,10,0.00
2013-7-1,86,74,66,71,67,61,100,80,54,29.92,29.77,19,1,19,0.00
2013-7-2,89,76,65,72,68,64,99,78,51,30.04,29.90,8,1,8,0.00
2013-7-3,91,77,69,74,70,67,95,81,53,30.13,30.04,6,0,6,0.00
2013-7-4,84,74,69,74,70,67,98,88,72,30.20,30.08,6,1,6,0.00
2013-7-5,88,76,69,75,72,68,99,87,61,30.18,30.09,8,1,8,0.00
2013-7-6,91,77,70,75,72,68,99,85,56,30.15,30.04,17,1,17,0.00
2013-7-7,84,74,68,74,70,67,100,89,69,30.14,30.03,6,0,6,0.00
2013-7-8,91,79,66,75,71,66,100,78,50,30.15,30.06,6,1,6,0.00
2013-7-9,94,83,74,77,73,70,93,74,52,30.11,30.00,9,1,9,0.00
2013-7-10,93,80,70,79,74,67,95,83,62,30.02,29.86,14,1,14,0.00
2013-7-11,84,74,68,72,69,66,99,85,65,29.98,29.90,8,0,8,0.00
2013-7-12,83,74,63,66,61,57,86,65,48,30.06,29.96,11,1,11,0.00
2013-7-13,89,83,65,70,68,61,87,61,49,30.12,30.04,8,1,8,0.00
2013-7-14,94,83,71,76,71,67,89,70,53,30.24,30.11,9,1,9,0.00
2013-7-15,94,84,70,74,71,68,95,68,45,30.32,30.22,0,0,0,0.00
2013-7-16,94,83,71,75,72,68,95,72,48,30.33,30.23,0,0,0,0.00
2013-7-17,94,85,74,78,75,72,94,73,52,30.30,30.16,4,0,5,0.00
2013-7-18,95,84,75,79,76,72,96,78,50,30.20,30.04,3,1,5,0.00
2013-7-19,97,85,75,80,76,71,97,76,51,30.07,29.92,13,1,13,0.00
2013-7-20,94,82,72,77,73,70,96,78,53,29.97,29.85,17,2,17,0.00
2013-7-21,88,78,70,74,72,70,99,82,60,29.98,29.88,6,1,6,0.00
2013-7-22,89,76,72,75,72,70,99,87,62,29.92,29.78,10,1,10,0.00
2013-7-23,91,80,72,76,72,68,99,78,54,29.85,29.74,11,1,11,0.00
2013-7-24,80,74,67,70,66,61,99,79,57,29.96,29.77,8,1,8,0.00
2013-7-25,80,70,60,62,59,56,89,68,47,30.08,29.95,6,1,6,0.00
2013-7-26,85,71,59,66,61,57,95,74,44,30.09,29.96,7,1,7,0.00
2013-7-27,83,74,66,69,66,63,94,79,58,29.98,29.85,9,1,9,0.00
2013-7-28,80,71,62,66,61,53,99,72,43,30.07,29.88,10,1,10,0.00
2013-7-29,83,70,55,63,58,53,94,69,43,30.18,30.06,7,1,7,0.00
2013-7-30,85,73,61,67,63,59,94,74,52,30.23,30.13,6,0,6,0.00
2013-7-31,77,72,68,69,67,65,95,85,74,30.14,29.95,7,0,7,0.00
2013-8-1,86,76,68,72,68,63,94,78,52,29.97,29.91,9,1,9,0.00
2013-8-2,86,74,62,67,64,60,95,73,49,30.03,29.95,10,1,10,0.00
2013-8-3,84,75,69,72,68,65,92,81,66,30.00,29.94,6,0,6,0.00
2013-8-4,80,73,64,70,64,58,99,75,50,30.09,30.00,8,1,8,0.00
2013-8-5,82,70,57,62,58,52,95,70,39,30.11,29.97,5,1,5,0.00
2013-8-6,88,76,65,72,65,59,90,70,49,30.03,29.94,7,1,7,0.00
2013-8-7,89,79,69,77,72,67,96,80,62,29.97,29.89,9,1,9,0.00
2013-8-8,88,78,73,76,74,71,98,86,66,29.95,29.91,10,1,10,0.00
2013-8-9,88,77,73,76,74,72,100,90,66,30.03,29.91,11,1,11,0.00
2013-8-10,85,77,71,75,71,61,100,83,61,30.11,30.01,6,0,6,0.00
2013-8-11,88,78,72,75,72,70,100,86,57,30.11,30.01,6,0,6,0.00
2013-8-12,87,77,71,76,73,71,100,90,69,30.07,29.90,6,1,6,0.00
2013-8-13,83,74,67,73,69,58,96,83,64,30.00,29.85,9,1,9,0.00
2013-8-14,75,65,55,58,54,50,93,69,43,30.15,29.99,7,1,7,0.00
2013-8-15,77,65,55,58,55,52,99,73,45,30.16,30.05,7,1,7,0.00
2013-8-16,82,69,57,65,59,55,96,72,48,30.13,30.07,7,1,7,0.00
2013-8-17,79,70,61,65,61,59,95,76,55,30.14,30.11,8,1,8,0.00
2013-8-18,74,69,66,70,67,63,98,91,84,30.18,30.10,5,0,5,0.00
2013-8-19,83,72,67,69,67,63,100,84,54,30.15,30.05,6,0,6,0.00
2013-8-20,87,74,64,71,66,63,100,80,47,30.18,30.08,7,1,7,0.00
2013-8-21,85,74,66,76,70,66,98,88,70,30.18,30.07,11,1,11,0.00
2013-8-22,88,76,66,76,70,64,98,83,61,30.14,29.99,9,1,9,0.00
2013-8-23,85,76,69,72,69,65,99,82,53,30.10,29.99,10,1,10,0.00
2013-8-24,86,74,65,68,64,58,100,75,40,30.26,30.10,8,1,8,0.00
2013-8-25,87,73,60,64,60,54,96,69,36,30.30,30.23,6,0,6,0.00
2013-8-26,90,75,60,73,66,58,96,77,51,30.28,30.08,7,1,7,0.00
2013-8-27,89,79,69,76,72,68,97,80,59,30.09,29.97,6,1,6,0.00
2013-8-28,92,81,74,78,74,72,100,83,57,29.98,29.85,12,2,12,0.00
2013-8-29,86,77,72,75,73,71,100,89,67,30.03,29.92,6,1,6,0.00
2013-8-30,90,78,70,76,72,70,100,82,55,30.00,29.86,7,1,7,0.00
2013-8-31,85,76,71,73,71,69,99,86,66,29.94,29.77,8,1,8,0.00
2013-9-1,88,78,70,74,71,69,96,80,60,29.85,29.77,7,1,7,0.00
2013-9-2,89,77,71,74,71,69,97,83,56,29.90,29.80,8,1,8,0.00
2013-9-3,81,73,63,70,65,57,98,76,54,30.06,29.88,11,1,11,0.00
2013-9-4,80,68,56,63,59,54,95,74,45,30.13,30.05,6,0,6,0.00
2013-9-5,84,70,57,67,62,56,97,78,52,30.17,30.10,6,0,6,0.00
2013-9-6,80,68,58,65,54,42,92,64,27,30.22,30.10,6,1,6,0.00
2013-9-7,85,69,55,67,58,53,94,73,39,30.12,29.97,7,1,7,0.00
2013-9-8,90,76,66,73,68,63,93,77,50,30.00,29.92,8,0,8,0.00
2013-9-9,92,79,67,75,70,66,99,78,50,30.07,29.98,9,1,9,0.00
2013-9-10,93,81,71,76,73,69,97,78,55,30.17,30.05,8,1,8,0.00
2013-9-11,91,79,71,78,73,69,99,84,55,30.18,30.04,8,1,8,0.00
2013-9-12,91,76,70,76,72,69,98,88,60,30.04,29.86,17,1,17,0.00
2013-9-13,70,65,57,68,56,48,100,74,47,30.05,29.84,9,1,9,0.00
2013-9-14,70,60,50,52,49,47,93,69,45,30.15,30.05,8,1,8,0.00
2013-9-15,80,64,48,63,56,46,95,78,52,30.16,30.04,9,1,9,0.00
2013-9-16,73,65,58,63,60,55,94,84,65,30.25,30.05,7,1,7,0.00
2013-9-17,77,64,54,59,56,53,98,79,49,30.30,30.15,11,1,11,0.00
2013-9-18,69,63,56,64,60,54,94,89,77,30.18,30.10,6,0,6,0.00
2013-9-19,78,68,61,72,66,61,100,93,80,30.13,30.00,4,0,4,0.00
2013-9-20,88,75,66,73,69,66,100,84,55,30.03,29.82,8,1,8,0.00
2013-9-21,71,67,58,69,64,58,99,93,78,29.83,29.69,7,0,7,0.00
2013-9-22,68,59,52,58,54,51,100,85,64,30.00,29.82,7,0,7,0.00
2013-9-23,70,59,49,53,51,48,100,77,51,30.08,29.99,7,1,7,0.00
2013-9-24,74,59,46,62,53,44,97,81,59,30.08,29.91,6,1,6,0.00
2013-9-25,74,64,54,65,59,53,99,85,63,29.92,29.85,6,0,6,0.00
2013-9-26,77,64,59,66,61,58,100,91,58,30.04,29.89,5,0,5,0.00
2013-9-27,78,64,56,62,57,51,100,80,40,30.15,30.04,3,0,5,0.00
2013-9-28,78,63,51,62,56,49,96,80,49,30.19,30.07,0,0,0,0.00
2013-9-29,77,65,55,64,59,54,97,84,62,30.09,29.98,0,0,0,0.00
2013-9-30,77,67,60,65,62,59,98,87,64,30.05,29.95,4,0,4,0.00
2013-10-1,80,68,59,65,62,59,100,82,54,30.10,30.00,6,0,6,0.00
2013-10-2,85,70,59,70,64,58,99,83,56,30.12,30.02,6,0,6,0.00
2013-10-3,83,70,66,72,68,64,100,93,65,30.09,30.04,9,0,9,0.00
2013-10-4,85,72,62,71,66,61,100,85,57,30.14,30.05,8,0,8,0.00
2013-10-5,86,74,65,72,68,64,99,85,60,30.11,29.97,7,0,7,0.00
2013-10-6,86,74,63,70,66,58,100,78,48,29.97,29.73,14,1,14,0.00
2013-10-7,67,59,49,58,50,45,95,75,48,30.12,29.82,11,2,11,0.00
2013-10-8,69,55,44,51,46,42,99,75,39,30.24,30.12,11,1,11,0.00
2013-10-9,72,58,45,50,47,44,95,71,38,30.19,30.16,8,1,8,0.00
2013-10-10,74,58,46,54,49,44,98,76,42,59.87,30.03,5,0,5,0.00
2013-10-11,76,60,49,61,54,48,97,82,56,30.07,29.98,9,1,9,0.00
2013-10-12,64,62,59,59,57,56,93,86,79,30.11,30.00,5,0,5,0.00
2013-10-13,74,65,56,64,60,56,99,86,69,30.24,30.11,5,0,5,0.00
2013-10-14,67,64,62,63,61,58,97,89,80,30.27,30.17,6,1,6,0.00
2013-10-15,75,66,58,64,61,58,100,86,65,30.17,29.95,6,0,6,0.00
2013-10-16,69,65,63,64,63,61,98,92,77,29.96,29.90,8,0,8,0.00
2013-10-17,63,58,55,62,56,51,98,94,86,29.93,29.82,12,1,12,0.00
2013-10-18,64,54,46,53,48,43,100,81,50,30.07,29.95,6,0,6,0.00
2013-10-19,58,48,42,52,45,40,99,89,75,30.01,29.82,14,1,14,0.00
2013-10-20,62,48,36,46,41,35,100,79,45,30.10,30.01,7,1,7,0.00
2013-10-21,69,52,38,48,42,35,94,71,35,30.07,29.90,11,1,11,0.00
2013-10-22,56,50,44,49,39,30,89,68,40,30.04,29.84,7,1,7,0.00
2013-10-23,50,44,38,46,41,36,96,87,77,30.04,29.71,11,1,11,0.00
2013-10-24,50,44,38,38,35,29,93,74,46,30.23,30.02,10,1,10,0.00
2013-10-25,52,42,35,38,34,28,89,73,45,30.42,30.22,7,1,7,0.00
2013-10-26,55,43,31,35,30,26,90,63,35,30.32,29.96,18,1,18,0.00
2013-10-27,62,48,37,42,38,33,90,68,44,30.10,30.02,9,1,9,0.00
2013-10-28,60,48,38,52,43,36,96,84,59,30.25,30.09,2,0,3,0.00
2013-10-29,59,52,46,54,50,45,100,95,83,30.33,30.21,3,0,3,0.00
2013-10-30,67,59,54,63,58,52,100,96,87,30.21,30.07,4,0,4,0.00
2013-10-31,70,64,58,61,59,56,100,83,63,30.07,29.48,11,1,11,0.00
2013-11-1,74,62,55,63,52,46,93,70,45,29.73,29.43,36,2,36,0.00
2013-11-2,58,54,47,49,43,38,84,68,49,30.02,29.68,14,1,14,0.00
2013-11-3,55,46,37,44,38,34,90,75,49,30.37,30.02,5,0,5,0.00
2013-11-4,62,48,36,43,39,33,94,74,46,30.37,30.31,5,0,5,0.00
2013-11-5,66,52,42,42,40,37,84,66,38,30.44,30.28,7,0,7,0.00
2013-11-6,75,58,40,60,48,36,90,71,52,30.29,29.97,15,1,15,0.00
2013-11-7,63,48,34,60,40,28,95,75,44,30.23,29.95,12,2,12,0.00
2013-11-8,53,42,34,36,30,25,85,64,35,30.37,30.21,10,1,10,0.00
2013-11-9,63,48,30,36,29,24,90,54,23,30.28,30.07,16,2,16,0.00
2013-11-10,55,47,34,39,31,26,78,55,36,30.34,30.12,16,2,16,0.00
2013-11-11,60,45,30,40,30,23,86,59,24,30.34,30.06,10,1,10,0.00
2013-11-12,55,35,26,44,28,21,93,75,55,30.59,30.09,13,2,13,0.00
2013-11-13,41,31,22,28,21,18,87,69,41,30.63,30.43,9,1,9,0.00
2013-11-14,54,36,25,28,24,21,83,64,28,30.43,30.19,10,1,10,0.00
2013-11-15,59,44,29,46,34,24,95,71,38,30.24,30.12,8,1,8,0.00
2013-11-16,67,52,41,56,48,40,99,87,67,30.18,29.99,10,0,10,0.00
2013-11-17,66,60,51,62,55,49,100,85,71,30.00,29.65,22,1,22,0.00
2013-11-18,59,52,44,51,39,28,82,62,39,30.14,29.80,21,2,21,0.00
2013-11-19,44,37,30,31,27,26,84,67,55,30.33,30.14,8,1,8,0.00
2013-11-20,55,40,31,34,29,25,86,66,39,30.34,30.23,8,1,8,0.00
2013-11-21,60,49,35,45,38,29,82,68,51,30.35,30.18,5,0,5,0.00
2013-11-22,59,53,44,59,50,37,100,90,77,30.28,30.10,15,1,15,0.00
2013-11-23,45,39,28,38,26,12,79,62,31,30.45,30.23,18,3,18,0.00
2013-11-24,30,25,20,18,9,3,71,50,34,30.64,30.45,13,2,13,0.00
2013-11-25,45,33,20,32,17,11,81,54,31,30.55,30.21,13,1,13,0.00
2013-11-26,38,36,34,36,34,32,95,93,81,30.22,29.82,7,1,7,0.00
2013-11-27,34,31,26,32,24,16,94,77,59,30.29,29.84,16,3,16,0.00
2013-11-28,37,28,20,23,19,15,85,69,49,30.46,30.28,8,1,8,0.00
2013-11-29,42,31,20,27,22,16,88,72,45,30.62,30.45,5,0,5,0.00
2013-11-30,53,34,22,34,26,19,87,74,44,30.49,30.22,9,1,9,0.00
2013-12-1,47,38,28,36,30,25,91,74,54,30.23,29.97,5,0,5,0.00
2013-12-2,57,47,36,41,38,32,89,73,51,29.91,29.77,5,0,5,0.00
2013-12-3,58,46,36,48,41,34,94,83,67,29.89,29.79,7,0,7,0.00
2013-12-4,68,53,40,56,47,38,97,82,62,29.93,29.79,8,0,8,0.00
2013-12-5,70,59,41,64,54,39,97,86,70,30.10,29.83,11,2,11,0.00
2013-12-6,41,37,33,39,35,31,94,92,88,30.29,30.02,8,2,8,0.00
2013-12-7,34,31,28,31,25,21,92,78,67,30.53,30.28,8,2,8,0.00
2013-12-8,36,32,27,34,29,22,100,90,76,30.49,30.00,8,2,9,0.00
2013-12-9,39,36,33,37,32,27,100,88,76,30.21,30.00,12,2,12,0.00
2013-12-10,35,32,27,27,22,16,87,69,53,30.33,30.05,17,2,17,0.00
2013-12-11,41,31,19,25,21,16,90,68,46,30.40,30.27,15,2,15,0.00
2013-12-12,30,25,20,16,10,2,67,53,31,30.53,30.33,12,2,12,0.00
2013-12-13,44,31,20,27,17,10,75,59,33,30.35,30.15,11,1,11,0.00
2013-12-14,44,39,34,44,37,27,100,93,73,30.19,29.72,15,1,15,0.00
2013-12-15,41,34,31,38,29,24,93,79,68,59.07,40.00,17,4,17,0.00
2013-12-16,41,35,31,33,30,24,93,81,70,59.40,30.02,12,1,12,0.00
2013-12-17,44,39,34,38,34,23,92,80,63,30.16,29.94,17,2,17,0.00
2013-12-18,41,33,26,27,23,20,85,67,42,30.25,30.12,16,2,16,0.00
2013-12-19,61,42,26,34,27,20,86,59,27,30.17,30.03,12,1,14,0.00
2013-12-20,62,52,36,53,41,27,90,69,38,30.04,29.91,12,1,12,0.00
2013-12-21,75,64,56,64,58,52,100,81,61,29.93,29.62,18,2,18,0.00
2013-12-22,70,60,53,64,57,49,100,90,70,30.01,29.60,36,2,36,0.00
2013-12-23,54,40,34,51,35,26,100,83,66,30.33,29.99,14,2,14,0.00
2013-12-24,33,24,18,26,12,6,77,59,41,59.82,30.31,14,2,14,0.00
2013-12-25,38,27,17,23,16,10,81,63,41,30.50,30.21,8,1,8,0.00
2013-12-26,44,36,26,28,23,19,84,59,38,30.38,30.18,17,2,17,0.00
2013-12-27,49,33,22,28,23,19,91,69,34,30.43,30.32,8,1,8,0.00
2013-12-28,53,39,25,35,26,21,90,65,37,30.32,30.03,8,1,8,0.00
2013-12-29,46,42,40,43,40,35,99,92,80,30.04,29.77,13,1,13,0.00
2013-12-30,42,35,31,39,29,23,94,77,64,30.20,29.95,16,2,16,0.00
2013-12-31,37,30,24,23,20,18,86,68,48,30.37,30.17,22,3,22,0.00
2014-1-1,49,33,23,29,25,20,92,74,40,30.31,30.04,7,1,7,0.00
2014-1-2,37,31,16,35,27,10,94,86,75,30.13,29.70,19,2,19,0.00